Terug naar catalogus

FENGYUN 1C DEB

LostSSO
NORAD 40685·DEBRIS·🇨🇳 China

Gelanceerd May 10, 1999 vanaf Taiyuan Satellite Launch Center

Loading…

Volgende Passages (komende 24 uur)

TLE

VerouderdSource: Space-Track

Epoch: Mar 10, 2025, 00:11 UTC

1 40685U 99025EWR 25069.00810717  .00003429  00000-0  25871-2 0  9997
2 40685  99.3268 153.7618 0159357  34.3098 326.8231 13.89044879521073

Volg FENGYUN 1C DEB in realtime met AllMySat

Download on the App Store